DW7000 Weather Reports


time (UTC)temp
F
wind
direction
speed
knots
gust
knots
rain 1hr
in
rain 24hr
in
rain mn
in
humidity
%
barometer
mb
20260503231534 63 176 0.0 0.0 0.00 0.00 0.00 45 1014.1
20260503230030 64 139 0.0 0.0 0.00 0.00 0.00 44 1014.2
20260503224529 64 355 0.0 0.0 0.00 0.00 0.00 43 1014.2
20260503223029 64 154 0.0 0.9 0.00 0.00 0.00 45 1014.3
20260503221528 64 165 0.0 0.9 0.00 0.00 0.00 43 1014.2
20260503220028 65 153 0.0 2.6 0.00 0.00 0.00 42 1014.2
20260503214528 65 248 0.0 0.0 0.00 0.00 0.00 43 1014.3
20260503213025 66 149 0.0 0.9 0.00 0.00 0.00 41 1014.4
20260503211525 67 146 0.0 0.0 0.00 0.00 0.00 40 1014.5
20260503210027 66 231 0.0 0.0 0.00 0.00 0.00 40 1014.5
20260503204533 67 152 0.0 0.0 0.00 0.00 0.00 38 1014.6
20260503203024 66 214 0.0 0.0 0.00 0.00 0.00 40 1014.9
20260503201522 65 160 0.0 3.5 0.00 0.00 0.00 39 1015.3
20260503200020 65 138 0.0 0.9 0.00 0.00 0.00 43 1015.5
20260503194523 65 34 0.0 0.9 0.00 0.00 0.00 41 1015.7
20260503193027 64 173 0.0 1.7 0.00 0.00 0.00 40 1015.9
20260503191518 66 171 0.0 0.9 0.00 0.00 0.00 39 1016.1
20260503190016 65 243 0.0 1.7 0.00 0.00 0.00 42 1016.3
20260503184532 65 121 0.0 0.0 0.00 0.00 0.00 42 1016.5
20260503183013 64 131 0.0 1.7 0.00 0.00 0.00 41 1016.6
20260503181513 64 225 0.0 0.0 0.00 0.00 0.00 42 1016.7
20260503180020 63 231 0.0 0.9 0.00 0.00 0.00 42 1016.8
20260503174510 63 328 0.0 3.5 0.00 0.00 0.00 43 1017.1
20260503173008 62 221 0.0 0.0 0.00 0.00 0.00 46 1017.1
20260503171507 62 39 0.0 1.7 0.00 0.00 0.00 42 1017.4
20260503081557 44 290 0.0 0.0 0.00 0.00 0.00 72 1015.3
20260503071548 45 294 0.0 0.9 0.00 0.00 0.00 69 1014.6
20260503054539 47 300 0.0 1.7 0.00 0.00 0.00 63 1014.2
20260503053040 46 326 0.0 0.0 0.00 0.00 0.00 65 1014.3
20260503051536 46 18 0.0 0.0 0.00 0.00 0.00 62 1014.5
20260503050035 46 342 0.0 0.0 0.00 0.00 0.00 63 1014.4
20260503044533 47 29 0.0 0.0 0.00 0.00 0.00 62 1014.4
20260503043033 47 354 0.0 0.0 0.00 0.00 0.00 62 1014.3
20260503041530 47 34 0.0 0.0 0.00 0.00 0.00 60 1014.2
20260503040030 47 9 0.0 0.0 0.00 0.00 0.00 60 1014.1
20260503034537 48 11 0.0 0.0 0.00 0.00 0.00 58 1013.9
20260503033021 48 1 0.0 0.0 0.00 0.00 0.00 57 1013.7
20260503031522 49 16 0.0 0.0 0.00 0.00 0.00 56 1013.6
20260503030016 49 314 0.0 1.7 0.00 0.00 0.00 55 1013.4
20260503024515 50 323 0.0 2.6 0.00 0.00 0.00 53 1013.4
20260503023012 50 311 0.0 9.6 0.00 0.00 0.00 53 1013.0
20260503021510 50 304 0.9 8.7 0.00 0.00 0.00 51 1012.3
20260503020008 50 333 0.9 10.4 0.00 0.00 0.00 52 1012.0
20260503014512 51 312 0.0 14.8 0.00 0.00 0.00 51 1012.0
20260503013003 51 29 0.0 10.4 0.00 0.00 0.00 50 1011.6
20260503011501 51 360 0.9 11.3 0.00 0.00 0.00 49 1011.4
20260503010100 52 300 0.9 10.4 0.00 0.00 0.00 48 1011.4
20260503004603 52 314 0.0 3.5 0.00 0.00 0.00 48 1011.3
20260503003058 53 260 0.0 0.9 0.00 0.00 0.00 46 1011.1
20260503001557 53 71 0.0 0.9 0.00 0.00 0.00 45 1010.8
20260503000056 54 294 0.0 5.2 0.00 0.00 0.00 44 1010.5
20260502234556 54 312 0.0 2.6 0.00 0.00 0.00 44 1010.4
20260502233102 54 81 0.0 5.2 0.00 0.00 0.00 44 1010.3